Weather History for Doha, Qatar

Change the Weather History Date:

Saturday, December 8, 2012

  Actual Average Record
Temperature  
Mean Temperature 74 °F -  
Max Temperature 78 °F 74 °F 87 °F (2007)
Min Temperature 70 °F 58 °F 57 °F (2011)
Cooling Degree Days 9    
Growing Degree Days 24 (Base 50)    
Moisture  
Dew Point 63 °F    
Average Humidity 68    
Maximum Humidity 83    
Minimum Humidity 44    
Precipitation  
Precipitation 0.00 in 0.02 in - ()
Sea Level Pressure  
Sea Level Pressure 30.06 in    
Wind  
Wind Speed 4 mph ()    
Max Wind Speed 10 mph    
Max Gust Speed -    
Visibility 6.4 miles    
Events      
Averages and records for this station are not official NWS values.
T = Trace of Precipitation, MM = Missing Value Source: Averaged Metar Reports

Daily Weather History Graph

Daily Weather History Graph

Search for Another Location

Airport:

Trip Planner

Search our weather history database for the weather conditions in past years. The results will help you decide how hot, cold, wet, or windy it might be!

Date:

Astronomy

Dec. 08, 2012 Rise Set
Actual Time 6:07 AM AST 4:44 PM AST
Civil Twilight 5:42 AM AST 5:09 PM AST
Nautical Twilight 5:13 AM AST 5:37 PM AST
Astronomical Twilight 4:45 AM AST 6:05 PM AST
Moon 12:34 AM AST (12/8) 12:35 PM AST (12/8)
Length of Visible Light 11h 26m
Length of Day
10h 36m
Waning Crescent, 32% of the Moon is Illuminated
Dec 8
Waning Crescent
Dec 13
New
Dec 20
First Quarter
Dec 28
Full
Jan 5
Last Quarter

Hourly Weather History & Observations

Time (AST) Temp. Dew Point Humidity Pressure Visibility Wind Dir Wind Speed Gust Speed Precip Events Conditions
12:00 AM 71.6 °F 64.4 °F 78% 30.06 in - North 5.8 mph - N/A   Clear
1:00 AM 71.6 °F 64.4 °F 78% 30.06 in - North 5.8 mph - N/A   Clear
2:00 AM 71.6 °F 64.4 °F 78% 30.04 in - North 6.9 mph - N/A   Clear
3:00 AM 72 °F 65 °F 71% 30.05 in 6 mi NNE 4.6 mph - -   Scattered Clouds
3:00 AM 71.6 °F 64.4 °F 78% 30.04 in - NNE 4.6 mph - N/A   Clear
4:00 AM 69.8 °F 64.4 °F 83% 30.04 in - North 3.5 mph - N/A   Clear
5:00 AM 71.6 °F 64.4 °F 78% 30.04 in - NNW 3.5 mph - N/A   Clear
6:00 AM 69.8 °F 64.4 °F 83% 30.06 in - Calm Calm - N/A   Clear
7:00 AM 71.6 °F 64.4 °F 78% 30.09 in 5.6 mi Variable 2.3 mph - N/A   Unknown
8:00 AM 73.4 °F 62.6 °F 69% 30.12 in 5.6 mi NNW 4.6 mph - N/A   Unknown
9:00 AM 76 °F 58 °F 44% 30.14 in 6 mi North 5.8 mph - -   Partly Cloudy
9:00 AM 77.0 °F 59.0 °F 54% 30.12 in - North 5.8 mph - N/A   Clear
10:00 AM 77.0 °F 62.6 °F 61% 30.12 in - North 9.2 mph - N/A   Clear
11:00 AM 78.8 °F 59.0 °F 51% 30.09 in - North 8.1 mph - N/A   Clear
12:00 PM 78.8 °F 62.6 °F 57% 30.06 in - North 10.4 mph - N/A   Clear
1:00 PM 78.8 °F 60.8 °F 54% 30.04 in - NNE 8.1 mph - N/A   Clear
2:00 PM 78.8 °F 57.2 °F 47% 30.04 in - North 3.5 mph - N/A   Clear
3:00 PM 78 °F 62 °F 48% 30.04 in 9 mi NE 5.8 mph - -   Partly Cloudy
3:00 PM 78.8 °F 62.6 °F 57% 30.04 in - NE 5.8 mph - N/A   Clear
4:00 PM 77.0 °F 64.4 °F 65% 30.04 in - East 4.6 mph - N/A   Clear
5:00 PM 75.2 °F 64.4 °F 69% 30.04 in - Variable 2.3 mph - N/A   Clear
6:00 PM 75.2 °F 66.2 °F 73% 30.04 in - Variable 2.3 mph - N/A   Clear
7:00 PM 75.2 °F 66.2 °F 73% 30.04 in - SE 3.5 mph - N/A   Clear
8:00 PM 75.2 °F 66.2 °F 73% 30.04 in - Calm Calm - N/A   Clear
9:00 PM 73.4 °F 66.2 °F 78% 30.06 in - Variable 1.2 mph - N/A   Clear
10:00 PM 71.6 °F 64.4 °F 78% 30.06 in - Calm Calm - N/A   Clear
11:00 PM 71.6 °F 66.2 °F 83% 30.06 in - Calm Calm - N/A   Clear